When you browse on this site, cookies collect data to enhance your experience and personalize the content and advertising you see.
Visit our Privacy Policy to learn more. By continuing to use the site, you agree to this use of cookies and data.
  • In Hungary
  • List of Countries
  • For 7 days
  • Water Temperature
  • Satellite Maps
  • Weather Map
  • News
  • Weather Widgets
  • user-avatar
    Login

    Hourly Weather Cava de' Tirreni

    Today, 19 January, Saturday

    Time Temperature Precipitation Wind Pressure Humidity
    00:00 +7°C° 0.2 mm 2 mps 727 mmHg 89%
    01:00 +7°C° 0.2 mm 2 mps 727 mmHg 89%
    02:00 +7°C° 0.4 mm 2 mps 727 mmHg 88%
    03:00 +7°C° 0.4 mm 2 mps 727 mmHg 88%
    04:00 +7°C° 0.4 mm 2 mps 727 mmHg 88%
    05:00 +7°C° 0.2 mm 3 mps 727 mmHg 87%
    06:00 +7°C° 0.2 mm 3 mps 727 mmHg 86%
    07:00 +7°C° 0.2 mm 3 mps 727 mmHg 86%
    08:00 +8°C° 0.5 mm 3 mps 727 mmHg 85%
    09:00 +8°C° 0.5 mm 3 mps 727 mmHg 84%
    10:00 +9°C° 0.5 mm 3 mps 727 mmHg 83%
    11:00 +9°C° 0.4 mm 3 mps 727 mmHg 79%
    12:00 +10°C° 0.4 mm 3 mps 727 mmHg 75%
    13:00 +11°C° 0.4 mm 3 mps 727 mmHg 71%
    14:00 +10°C° 0.1 mm 3 mps 727 mmHg 70%
    15:00 +10°C° 0.1 mm 3 mps 726 mmHg 69%
    16:00 +9°C° 0.1 mm 3 mps 726 mmHg 68%
    17:00 +9°C° 0 mm 2 mps 726 mmHg 69%
    18:00 +8°C° 0 mm 2 mps 727 mmHg 70%
    19:00 +8°C° 0 mm 1 mps 727 mmHg 70%
    20:00 +8°C° 0 mm 1 mps 727 mmHg 72%
    21:00 +8°C° 0 mm 1 mps 727 mmHg 73%
    22:00 +7°C° 0 mm 1 mps 727 mmHg 75%
    23:00 +7°C° 0 mm 1 mps 727 mmHg 76%

    Tomorrow, 20 January, Sunday

    Time Temperature Precipitation Wind Pressure Humidity
    00:00 +7°C° 0 mm 1 mps 727 mmHg 77%
    01:00 +6°C° 0 mm 1 mps 727 mmHg 79%
    02:00 +6°C° 0 mm 1 mps 727 mmHg 79%
    03:00 +5°C° 0 mm 2 mps 727 mmHg 80%
    04:00 +5°C° 0 mm 2 mps 727 mmHg 80%
    05:00 +5°C° 0 mm 2 mps 727 mmHg 80%
    06:00 +5°C° 0 mm 2 mps 727 mmHg 79%
    07:00 +7°C° 0 mm 1 mps 727 mmHg 78%
    08:00 +7°C° 0 mm 1 mps 727 mmHg 75%
    09:00 +8°C° 0 mm 1 mps 727 mmHg 72%
    10:00 +9°C° 0 mm 1 mps 727 mmHg 69%
    11:00 +8°C° 0 mm 2 mps 727 mmHg 67%
    12:00 +9°C° 0 mm 2 mps 727 mmHg 64%
    13:00 +10°C° 0 mm 2 mps 726 mmHg 62%
    14:00 +9°C° 0.3 mm 2 mps 726 mmHg 65%
    15:00 +9°C° 0.3 mm 2 mps 726 mmHg 68%
    16:00 +9°C° 0.3 mm 2 mps 726 mmHg 71%
    17:00 +8°C° 0.9 mm 2 mps 726 mmHg 74%
    18:00 +8°C° 0.9 mm 2 mps 726 mmHg 76%
    19:00 +7°C° 0.9 mm 2 mps 726 mmHg 79%
    20:00 +7°C° 0.4 mm 2 mps 726 mmHg 79%
    21:00 +7°C° 0.4 mm 2 mps 726 mmHg 79%
    22:00 +7°C° 0.4 mm 3 mps 727 mmHg 78%
    23:00 +7°C° 0.1 mm 3 mps 727 mmHg 79%

    Day after tomorrow, 21 January, Monday

    Time Temperature Precipitation Wind Pressure Humidity
    00:00 +7°C° 0.1 mm 3 mps 727 mmHg 79%
    01:00 +7°C° 0.1 mm 3 mps 727 mmHg 80%
    02:00 +7°C° 0.1 mm 3 mps 726 mmHg 81%
    03:00 +7°C° 0.1 mm 3 mps 726 mmHg 82%
    04:00 +7°C° 0.1 mm 2 mps 726 mmHg 84%
    05:00 +7°C° 0 mm 2 mps 726 mmHg 85%
    06:00 +6°C° 0 mm 2 mps 726 mmHg 86%
    07:00 +6°C° 0 mm 2 mps 726 mmHg 87%
    08:00 +7°C° 0 mm 2 mps 726 mmHg 83%
    09:00 +8°C° 0 mm 2 mps 727 mmHg 80%
    10:00 +8°C° 0 mm 2 mps 727 mmHg 76%
    11:00 +9°C° 0.1 mm 2 mps 726 mmHg 73%
    12:00 +9°C° 0.1 mm 2 mps 726 mmHg 70%
    13:00 +11°C° 0.1 mm 1 mps 726 mmHg 67%
    14:00 +11°C° 0.3 mm 1 mps 726 mmHg 68%
    15:00 +10°C° 0.3 mm 1 mps 726 mmHg 69%
    16:00 +10°C° 0.3 mm 1 mps 726 mmHg 71%
    17:00 +10°C° 0.2 mm 1 mps 726 mmHg 73%
    18:00 +8°C° 0.2 mm 2 mps 726 mmHg 75%
    19:00 +8°C° 0.2 mm 2 mps 726 mmHg 77%
    20:00 +8°C° 0 mm 3 mps 726 mmHg 77%
    21:00 +8°C° 0 mm 3 mps 726 mmHg 78%
    22:00 +7°C° 0 mm 3 mps 726 mmHg 79%
    23:00 +7°C° 0.1 mm 3 mps 726 mmHg 79%

    22 January, Tuesday

    Time Temperature Precipitation Wind Pressure Humidity
    00:00 +7°C° 0.1 mm 3 mps 726 mmHg 78%
    01:00 +6°C° 0.1 mm 4 mps 726 mmHg 78%
    02:00 +6°C° 0.4 mm 4 mps 725 mmHg 79%
    03:00 +6°C° 0.4 mm 4 mps 725 mmHg 79%
    04:00 +5°C° 0.4 mm 4 mps 724 mmHg 80%
    05:00 +5°C° 0.8 mm 4 mps 724 mmHg 80%
    06:00 +5°C° 0.8 mm 4 mps 724 mmHg 80%
    07:00 +5°C° 0.8 mm 4 mps 724 mmHg 80%
    08:00 +5°C° 0.1 mm 4 mps 724 mmHg 78%
    09:00 +7°C° 0.1 mm 3 mps 724 mmHg 75%
    10:00 +7°C° 0.1 mm 3 mps 724 mmHg 72%
    11:00 +8°C° 0.1 mm 3 mps 724 mmHg 70%
    12:00 +8°C° 0.1 mm 3 mps 723 mmHg 67%
    13:00 +8°C° 0.1 mm 2 mps 723 mmHg 65%
    14:00 +8°C° 0.1 mm 2 mps 723 mmHg 66%
    15:00 +8°C° 0.1 mm 2 mps 722 mmHg 67%
    16:00 +8°C° 0.1 mm 2 mps 722 mmHg 68%
    17:00 +7°C° 0.3 mm 2 mps 722 mmHg 71%
    18:00 +7°C° 0.3 mm 2 mps 721 mmHg 74%
    19:00 +7°C° 0.3 mm 1 mps 721 mmHg 77%
    20:00 +6°C° 0.2 mm 2 mps 721 mmHg 78%
    21:00 +6°C° 0.2 mm 2 mps 721 mmHg 78%
    22:00 +6°C° 0.2 mm 2 mps 721 mmHg 79%
    23:00 +5°C° 0.1 mm 3 mps 720 mmHg 77%

    23 January, Wednesday

    Time Temperature Precipitation Wind Pressure Humidity
    00:00 +5°C° 0.1 mm 3 mps 720 mmHg 76%
    01:00 +5°C° 0.1 mm 3 mps 719 mmHg 74%
    02:00 +5°C° 0 mm 3 mps 719 mmHg 73%
    03:00 +6°C° 0 mm 2 mps 718 mmHg 71%
    04:00 +5°C° 0 mm 2 mps 718 mmHg 70%
    05:00 +4°C° 0.2 mm 3 mps 717 mmHg 73%
    06:00 +4°C° 0.2 mm 3 mps 717 mmHg 75%
    07:00 +4°C° 0.2 mm 4 mps 716 mmHg 78%
    08:00 +5°C° 0.4 mm 4 mps 716 mmHg 77%
    09:00 +5°C° 0.4 mm 5 mps 715 mmHg 77%
    10:00 +5°C° 0.4 mm 6 mps 714 mmHg 77%
    11:00 +5°C° 6.7 mm 8 mps 713 mmHg 78%
    12:00 +4°C° 6.7 mm 11 mps 712 mmHg 80%
    13:00 +4°C° 6.7 mm 13 mps 711 mmHg 82%
    14:00 +4°C° 2.4 mm 11 mps 711 mmHg 79%
    15:00 +5°C° 2.4 mm 9 mps 710 mmHg 75%
    16:00 +5°C° 2.4 mm 7 mps 710 mmHg 72%
    17:00 +5°C° 0.5 mm 6 mps 710 mmHg 70%
    18:00 +6°C° 0.5 mm 5 mps 710 mmHg 68%
    19:00 +7°C° 0.5 mm 3 mps 710 mmHg 66%
    20:00 +5°C° 0 mm 3 mps 710 mmHg 67%
    21:00 +5°C° 0 mm 3 mps 710 mmHg 68%
    22:00 +5°C° 0 mm 3 mps 709 mmHg 69%
    23:00 +5°C° 0.1 mm 4 mps 708 mmHg 73%

    24 January, Thursday

    Time Temperature Precipitation Wind Pressure Humidity
    00:00 +3°C° 0.1 mm 5 mps 707 mmHg 76%
    01:00 +3°C° 0.1 mm 6 mps 706 mmHg 80%
    02:00 +2°C° 1.1 mm 8 mps 704 mmHg 81%
    03:00 +2°C° 1.1 mm 9 mps 703 mmHg 82%
    04:00 +2°C° 1.1 mm 11 mps 702 mmHg 82%
    05:00 +2°C° 2.2 mm 10 mps 702 mmHg 77%
    06:00 +2°C° 2.2 mm 10 mps 703 mmHg 71%
    07:00 +1°C° 2.2 mm 10 mps 703 mmHg 66%
    08:00 +1°C° 1 mm 10 mps 703 mmHg 66%
    09:00 +1°C° 1 mm 10 mps 704 mmHg 65%
    10:00 +1°C° 1 mm 11 mps 704 mmHg 65%
    11:00 +2°C° 0.6 mm 11 mps 704 mmHg 65%
    12:00 +2°C° 0.6 mm 11 mps 704 mmHg 64%
    13:00 +2°C° 0.6 mm 11 mps 704 mmHg 64%
    14:00 +2°C° 0.8 mm 10 mps 704 mmHg 66%
    15:00 +2°C° 0.8 mm 9 mps 704 mmHg 67%
    16:00 +1°C° 0.8 mm 8 mps 704 mmHg 69%
    17:00 +2°C° 1.2 mm 7 mps 704 mmHg 72%
    18:00 +2°C° 1.2 mm 7 mps 705 mmHg 74%
    19:00 +2°C° 1.2 mm 6 mps 705 mmHg 77%
    20:00 +2°C° 1.4 mm 7 mps 705 mmHg 77%
    21:00 +2°C° 1.4 mm 7 mps 705 mmHg 78%
    22:00 +2°C° 1.4 mm 7 mps 705 mmHg 79%
    23:00 +3°C° 1.4 mm 6 mps 705 mmHg 79%
    Show more